Погода в Тилбурге

Нидерланды     51°33′18″N   5°04′41″E
темп.,
°C
ветер,
м/с
пор.,
м/с
влажн.,
%
обл.,
%
осадки,
мм/ч
давл.,
гПа
погр.,
м
1 августа, вс
вс123:00+14зюз35925 0.2 101082
02:00+13юз38965 0.2 1010176
05:00+12ююз37975 0.0 1009169
08:00+13ююз489324 0.0 1009271
11:00+19зюз57695 0.1 1009888
14:00+20з566658 2.0 10091463
17:00+19зсз567570 2.6 1010979
20:00+17зсз477810 3.5 1010418
2 августа, пн
пн223:00+13сз239216 0.1 101256
02:00+12сз22926 0.1 101321
05:00+13сз118897 0.0 101329
08:00+14юз1183100 0.0 101496
11:00+15ююз1277100 0.0 1015367
14:00+14юз1193100 0.8 1015119
17:00+19сз116213 0.0 1014941
20:00+18ссв236821 0.0 1013136
3 августа, вт
вт323:00+14св337934 0.0 101452
02:00+13св3578100 0.0 1013107
05:00+13всв2284100 0.1 101247
08:00+14св2286100 0.3 1013165
11:00+14ссв2483100 0.1 1012281
14:00+13с2394100 1.9 1013178
17:00+15ссз2387100 0.2 1013328
20:00+15ссз1189100 0.2 101325
4 августа, ср
ср423:00+14сз2294100 0.6 101437
02:00+13ссз2296100 2.7 101354
05:00+13сз1298100 2.9 101365
08:00+13зсз1296100 3.7 1014103
11:00+14з2394100 0.2 1014354
14:00+15ссз2391100 0.8 1014449
17:00+16ссв448559 0.3 1015581
20:00+16св238059 0.3 1015447
5 августа, чт
чт523:00+12всв22938 0.0 101515
02:00+11юв11920 0.0 101411
05:00+10ююв11955 0.0 101310
08:00+13юв1290100 0.0 1012102
11:00+17ююв2373100 0.0 1011624
14:00+20ююз3456100 0.0 10101347
17:00+21ююз4561100 0.3 10081205
20:00+18ю258598 0.9 1007267